Regional Weather Roundup
Issued by NWS

Home | Current Version | Previous Version | Text Only | Print | Product List | Glossary On
Versions: 1 2 3 4 5 6 7 8 9 10 11 12 13 14 15 16 17 18 19 20 21 22 23 24 25 26 27 28 29 30 31 32 33 34 35 36 37 38 39 40 41 42 43 44 45 46 47 48 49 50
000
ASUS42 KFFC 280210
RWRGA
WEATHER ROUNDUP FOR GEORGIA
NATIONAL WEATHER SERVICE PEACHTREE CITY GA
1000 PM EDT SAT MAY 27 2017

NOTE: "FAIR" INDICATES FEW OR NO CLOUDS BELOW 12,000 FEET WITH NO
SIGNIFICANT WEATHER AND/OR OBSTRUCTIONS TO VISIBILITY.

* = USE WITH CAUTION. THE STATIONS MARKED WITH AN ASTERISK MAY NOT
REPORT WEATHER SUCH AS PRECIPITATION, FOG, OR THUNDER AND ARE NOT
QUALITY CONTROLLED BY NWS.

THE REMARK "TC" DENOTES TEMPERATURE READING IN DEGREES CELSIUS.

GAZ001>058-280300-
NORTH GEORGIA

CITY           SKY/WX    TMP DP  RH WIND       PRES   REMARKS
ATLANTA        PTCLDY    76  69  79 SW7       29.96F
ATHENS         CLEAR     75  67  76 VRB3      29.95S
CHAMBLEE       PTCLDY    76  67  73 SW8       29.96F
PEACHTREE CITY CLEAR     72  70  93 S3        29.97F
ROME           CLOUDY    78  72  81 CALM      29.92S
WEST ATLANTA   CLEAR     77  71  82 SW3       29.96S
GAINESVILLE    PTCLDY    74  67  78 SW5       29.98R
CARTERSVILLE   MOCLDY    76  72  87 S7        29.94S


CITY           SKY/WX    TMP DP  RH WIND       PRES   REMARKS
DALTON*        CLOUDY    75  70  83 CALM      29.94R
MARIETTA       MOCLDY    76  69  78 S6        29.96S
KENNESAW*      PTCLDY    77  68  73 CALM      29.96F
CANTON*        PTCLDY    77  63  61 CALM      29.98R
$$

GAZ059>098-102>109-280300-
CENTRAL GEORGIA

CITY           SKY/WX    TMP DP  RH WIND       PRES   REMARKS
AUGUSTA-BUSH   CLEAR     74  62  66 SW3       29.93S
AUGUSTA-DANIEL CLEAR     81  55  40 CALM      29.95S
COLUMBUS       CLEAR     80  69  69 W5        29.97S
MACON          CLEAR     75  66  73 CALM      29.97S
ROBINS AFB     CLEAR     75  66  73 CALM      29.97R


CITY           SKY/WX    TMP DP  RH WIND       PRES   REMARKS
LAGRANGE*      CLEAR     74  74 100 S3        29.97F
SYLVANIA*      CLEAR     74  67  77 CALM      29.97R
MILLEDGEVILLE* PTCLDY    75  70  83 CALM      29.96F
$$

GAZ099>101-110>166-280300-
SOUTH GEORGIA

CITY           SKY/WX    TMP DP  RH WIND       PRES   REMARKS
SAVANNAH       CLEAR     78  62  57 CALM      29.95R
VALDOSTA       CLEAR     74  62  66 SW3       29.98R
ALMA           CLEAR     71  63  75 CALM      29.96R
ST SIMONS      CLEAR     79  70  74 S8        29.96S
FT STEWART     CLEAR     74  65  74 NW3       29.93R
ALBANY         CLEAR     78  67  68 CALM      30.00R
HUNTER AFB     CLEAR     78  72  83 CALM      29.93R
MOODY AFB      CLEAR     76  62  61 CALM      29.97R
BRUNSWICK      CLEAR     79  70  73 S7        29.97S


CITY           SKY/WX    TMP DP  RH WIND       PRES   REMARKS
BAINBRIDGE*    CLEAR     79  68  69 CALM      29.98R
MOULTRIE*      CLEAR     75  66  73 CALM      30.00R
VIDALIA*       CLEAR     79  63  57 CALM      29.97R
WAYCROSS*      CLEAR     77  66  68 CALM      29.97R
DOUGLAS*       CLEAR     79  57  47 W5        30.00R
$$



USA.gov is the U.S. government's official web portal to all federal, state and local government web resources and services.